{"data":{"norad_id":64928,"epoch":"2026-05-24T23:50:31.475040Z","epoch_age_seconds":68784,"freshness":"FRESH","line1":"1 64928U 25157AA  26144.99341985  .00026837  00000+0  91474-3 0  9997","line2":"2 64928  53.1584 351.4224 0000693  60.1344 299.9725 15.30207932 47808","mean_motion":15.30207932,"eccentricity":6.93e-5,"inclination_deg":53.1584,"raan_deg":351.4224,"arg_perigee_deg":60.1344,"mean_anomaly_deg":299.9725,"bstar":0.00091474,"rev_number":4780,"period_min":94.104857901103,"perigee_km":474.71645034223,"apogee_km":475.66632165653,"semimajor_km":6853.3283859994,"source":"CELESTRAK","updated_at":"2026-05-25T13:38:20.626437Z"}}